[[{"header":{"parameterUnit":"m.s-1","parameterCategory":2,"la1":30.2991,"la2":30.254,"lo1":-89.0895,"lo2":-89.0444,"dy":0.0017,"dx":0.0017,"nx":28,"ny":28,"refTime":"2024-04-14T21:00:00:Z","depth":"0","parameterNumber":2,"parameterNumberName":"U-component_of_CURRENTS"},"data":[0,0,0,0,0,0,0,0,0,0,0,0,0,0,0,0,0,0,0,0,0,0,0,0,0,0,0,0,0,0,0,0,0,0,0,0,0,0,0,0,0,0,0,0,0,0,0,0,0,0,0,0,0,0,0,0,0,0,0.316,0.3162,0,0.3336,0.3337,0.3339,0.3352,0.335,0.3349,0.3347,0.3415,0.3418,0.3422,0,0,0,0,0,0,0,0,0,0,0,0,0,0.2954,0.2957,0.316,0.3162,0.3165,0.3335,0.3337,0.334,0.3352,0.335,0.3348,0.3346,0.3414,0.3418,0.3422,0,0,0,0,0,0,0,0,0,0,0,0,0,0.3076,0.2958,0.3159,0.3193,0.3198,0.3335,0.3337,0.334,0.3353,0.335,0.3348,0.3345,0.3413,0.3417,0.3423,0.3506,0,0,0.3438,0.344,0,0,0,0,0,0,0,0,0.3069,0.3083,0.3186,0.3191,0.3197,0.3321,0.329,0.3391,0.3354,0.3292,0.3347,0.3344,0.3377,0.3385,0.3422,0.3509,0.3512,0.3439,0.3442,0.3444,0.3445,0,0,0,0,0,0,0,0.306,0.3076,0.3227,0.3189,0.3196,0.3241,0.3254,0.331,0.3343,0.3297,0.3299,0.3323,0.3379,0.3417,0.3423,0.3513,0.3438,0.3443,0.3446,0.3448,0.3674,0.3677,0,0,0,0,0,0,0.304,0.3068,0.3221,0.3232,0.3128,0.3246,0.3261,0.3282,0.3345,0.3354,0.3325,0.3323,0.341,0.3417,0.3426,0.3514,0.3444,0.3449,0.3452,0.3671,0.3675,0.3678,0,0,0,0,0,0,0.3035,0.3052,0.3214,0.3156,0.318,0.3252,0.3276,0.3287,0.3327,0.3368,0.3373,0.3353,0.3408,0.3418,0.3493,0.3517,0.3451,0.3456,0.3668,0.3672,0.3676,0.37,0,0,0,0,0,0,0.3029,0.3049,0.3061,0.3155,0.3182,0.3317,0.328,0.3292,0.3347,0.3345,0.3394,0.3398,0.3407,0.3485,0.3498,0.3523,0.346,0.3664,0.367,0.3675,0.3695,0.3705,0.3712,0,0,0,0,0,0.3021,0.305,0.306,0.308,0.3195,0.332,0.334,0.338,0.335,0.3398,0.3419,0.3396,0.3528,0.3493,0.3506,0.3533,0.3661,0.3668,0.3675,0.3692,0.3703,0.3712,0,0,0,0,0,0,0.2965,0.3058,0.307,0.3124,0.3223,0.3323,0.337,0.339,0.3449,0.3436,0.3446,0.3455,0.3535,0.3543,0.3504,0.3619,0.3587,0.3597,0.3596,0.3607,0.3615,0.3616,0.3464,0,0,0,0,0,0.2961,0.3007,0.311,0.3159,0.3207,0.3288,0.3339,0.3376,0.344,0.3463,0.3497,0.353,0.358,0.3596,0.3658,0.372,0.3746,0.3746,0.3754,0.3761,0.3776,0.3836,0.385,0.37,0.37,0.3699,0,0,0.2953,0.3011,0.3036,0.3152,0.3224,0.3321,0.3313,0.3409,0.3472,0.3462,0.3549,0.358,0.3612,0.3688,0.372,0.3687,0.3825,0.377,0.3774,0.3786,0.3844,0.3859,0.3871,0.3704,0.3703,0.3703,0,0,0.2992,0.3019,0.3087,0.3174,0.3295,0.335,0.3378,0.3493,0.3523,0.3623,0.3621,0.3669,0.3753,0.3776,0.3792,0.3891,0.3885,0.3901,0.3921,0.3979,0.3991,0.4002,0.4071,0.4088,0.3881,0.3881,0.3881,0,0.2978,0.3075,0.3131,0.3233,0.3299,0.3362,0.3458,0.3519,0.3639,0.366,0.3655,0.3771,0.3797,0.3858,0.3887,0.3907,0.3941,0.3868,0.3987,0.3998,0.4008,0.4076,0.4094,0.3883,0.3883,0.3882,0.3882,0,0.3083,0.3166,0.3221,0.3353,0.343,0.353,0.3618,0.3681,0.3706,0.3753,0.3835,0.388,0.393,0.3947,0.3945,0.4025,0.4029,0.4003,0.3948,0.4024,0.4092,0.4111,0.3886,0.3885,0.3884,0.3884,0,0,0.3043,0.325,0.327,0.335,0.3497,0.3574,0.3665,0.3765,0.3799,0.3887,0.3936,0.4017,0.4012,0.4034,0.4034,0.4076,0.4183,0.4065,0.4067,0.4113,0.4326,0.422,0.423,0.4167,0.417,0.4172,0.4348,0,0.3114,0.3309,0.3379,0.3541,0.3651,0.3709,0.3781,0.3861,0.3909,0.3974,0.3999,0.4063,0.405,0.4063,0.4108,0.4164,0.4231,0.4139,0.4264,0.4269,0.4148,0.4247,0.396,0.4082,0.4365,0.4368,0.4371,0,0.3198,0.3319,0.3495,0.3641,0.3682,0.3759,0.3848,0.3927,0.4003,0.4032,0.4078,0.4103,0.4176,0.4155,0.4291,0.4228,0.4296,0.4339,0.4346,0.425,0.4196,0.4052,0.4104,0.3975,0.4399,0.4396,0.4394,0,0.3185,0.3385,0.3516,0.3583,0.3758,0.3797,0.3856,0.3938,0.3987,0.4068,0.4104,0.4177,0.4227,0.4309,0.439,0.435,0.4548,0.4497,0.4482,0.4476,0.4259,0.4227,0.4177,0.4634,0.4634,0.4633,0.4633,0,0.3253,0.3358,0.3516,0.3609,0.3703,0.38,0.3876,0.3936,0.4011,0.4061,0.4125,0.4179,0.4271,0.4373,0.4436,0.4514,0.459,0.4521,0.4519,0.4262,0.423,0.4127,0.4082,0.464,0.4639,0.4637,0.4636,0,0.3273,0.3384,0.3546,0.3703,0.3729,0.38,0.389,0.3929,0.4007,0.4076,0.4104,0.4218,0.4336,0.4437,0.459,0.4569,0.451,0.468,0.4376,0.4333,0.4122,0.4089,0.3992,0.3888,0.4664,0.4662,0.4661,0,0.3315,0.3412,0.3594,0.3643,0.3718,0.3804,0.3837,0.3923,0.3959,0.4087,0.4113,0.4257,0.4336,0.4518,0.4512,0.4605,0.4501,0.4382,0.4243,0.4095,0.406,0.3956,0.3869,0.3988,0.3982,0.3976,0.3972,0,0.3387,0.3453,0.3575,0.3674,0.3727,0.3783,0.3836,0.3861,0.3942,0.3999,0.408,0.4161,0.4302,0.4227,0.433,0.4346,0.4098,0.4271,0.4186,0.3591,0.3407,0.3308,0.392,0.3923,0.3928,0.3932,0.3934,0.3936,0.3403,0.3484,0.3611,0.3685,0.3727,0.3729,0.3708,0.3758,0.3796,0.3804,0.3963,0.3982,0.3932,0.4014,0.4007,0.375,0.3847,0.356,0.3562,0.3498,0.3278,0.3795,0.3742,0.3746,0.3749,0.3752,0.3754,0,0.3401,0.3487,0.3582,0.3645,0.3622,0.3664,0.3662,0.3595,0.3565,0.3637,0.3676,0.3568,0.3471,0.3431,0.3211,0.3038,0.2933,0.2931,0.2697,0.2675,0.3177,0.3022,0.2722,0.2722,0.2723,0.2723,0.2723,0.2723,0.34,0.3488,0.3541,0.3508,0.3504,0.3387,0.3341,0.3285,0.3289,0.3165,0.3072,0.3082,0.3051,0.2842,0.2592,0.2521,0.2346,0.2173,0.2307,0.2614,0.2672,0.2727,0.2569,0.218,0.2179,0.1622,0.1618,0.1614]},{"header":{"parameterUnit":"m.s-1","parameterCategory":2,"la1":30.2991,"la2":30.254,"lo1":-89.0895,"lo2":-89.0444,"dy":0.0017,"dx":0.0017,"nx":28,"ny":28,"refTime":"2024-04-14T21:00:00:Z","depth":"0","parameterNumber":3,"parameterNumberName":"V-component_of_CURRENTS"},"data":[0,0,0,0,0,0,0,0,0,0,0,0,0,0,0,0,0,0,0,0,0,0,0,0,0,0,0,0,0,0,0,0,0,0,0,0,0,0,0,0,0,0,0,0,0,0,0,0,0,0,0,0,0,0,0,0,0,0,-0.013,-0.0131,0,-0.0291,-0.0293,-0.0295,-0.0361,-0.036,-0.0359,-0.0359,-0.0497,-0.0501,-0.0506,0,0,0,0,0,0,0,0,0,0,0,0,0,0.0004,0.0002,-0.013,-0.0131,-0.0133,-0.0291,-0.0293,-0.0296,-0.0361,-0.036,-0.0359,-0.0358,-0.0496,-0.0501,-0.0506,0,0,0,0,0,0,0,0,0,0,0,0,0,-0.0099,0.0002,-0.0129,-0.0181,-0.0187,-0.029,-0.0293,-0.0297,-0.0361,-0.036,-0.0359,-0.0358,-0.0494,-0.05,-0.0507,-0.057,0,0,-0.0527,-0.053,0,0,0,0,0,0,0,0,-0.0093,-0.0104,-0.0172,-0.0178,-0.0185,-0.0301,-0.0297,-0.0385,-0.0361,-0.0299,-0.0359,-0.0357,-0.0428,-0.044,-0.0479,-0.0576,-0.0582,-0.0528,-0.0532,-0.0534,-0.0536,0,0,0,0,0,0,0,-0.0085,-0.0098,-0.0198,-0.0174,-0.0182,-0.0237,-0.025,-0.0315,-0.037,-0.0305,-0.0309,-0.0321,-0.0431,-0.0472,-0.0482,-0.0584,-0.0527,-0.0533,-0.0537,-0.054,-0.0642,-0.0641,0,0,0,0,0,0,-0.0053,-0.0091,-0.0192,-0.0202,-0.0131,-0.0239,-0.0254,-0.0268,-0.037,-0.0384,-0.0322,-0.0323,-0.0461,-0.0474,-0.0487,-0.0488,-0.0534,-0.054,-0.0544,-0.0644,-0.0642,-0.0641,0,0,0,0,0,0,-0.0049,-0.006,-0.0186,-0.0147,-0.0166,-0.0242,-0.0258,-0.0272,-0.031,-0.0383,-0.0396,-0.0344,-0.0461,-0.0478,-0.0547,-0.0496,-0.0543,-0.0549,-0.0645,-0.0643,-0.0641,-0.054,0,0,0,0,0,0,-0.0045,-0.0058,-0.0063,-0.0144,-0.0167,-0.0255,-0.0259,-0.0276,-0.0317,-0.0321,-0.0407,-0.0419,-0.0462,-0.0537,-0.0554,-0.0506,-0.0555,-0.0646,-0.0644,-0.0642,-0.0545,-0.0535,-0.0526,0,0,0,0,0,-0.004,-0.005,-0.0063,-0.0075,-0.0169,-0.0256,-0.0274,-0.0326,-0.0319,-0.0353,-0.0398,-0.0416,-0.0531,-0.0544,-0.0563,-0.0516,-0.0648,-0.0645,-0.0642,-0.0549,-0.0537,-0.0527,0,0,0,0,0,0,0.0002,-0.0059,-0.0075,-0.0104,-0.0176,-0.0265,-0.0292,-0.0325,-0.0391,-0.0379,-0.044,-0.0458,-0.0486,-0.0528,-0.0539,-0.0535,-0.0577,-0.0578,-0.0499,-0.0488,-0.0479,-0.044,-0.056,0,0,0,0,0,0.0012,-0.0007,-0.0086,-0.011,-0.0138,-0.0213,-0.0251,-0.0288,-0.0351,-0.0379,-0.0433,-0.0468,-0.0493,-0.0514,-0.056,-0.0588,-0.0589,-0.0557,-0.0547,-0.0539,-0.0518,-0.0495,-0.0481,-0.0632,-0.0632,-0.0632,0,0,0.0024,-0.0012,-0.0023,-0.0101,-0.0152,-0.0191,-0.0235,-0.0289,-0.0302,-0.0383,-0.0416,-0.0456,-0.0497,-0.0513,-0.0525,-0.0541,-0.0494,-0.0536,-0.0528,-0.0512,-0.0491,-0.0476,-0.0463,-0.063,-0.063,-0.063,0,0,0.0035,0.0005,-0.001,-0.0062,-0.0132,-0.0177,-0.0187,-0.0274,-0.0294,-0.035,-0.0372,-0.0385,-0.0466,-0.0459,-0.0466,-0.0437,-0.0452,-0.0442,-0.0361,-0.0339,-0.0326,-0.0314,-0.028,-0.0267,-0.0429,-0.0429,-0.0429,0,0.0053,0.0026,-0.0033,-0.0061,-0.0084,-0.0159,-0.0177,-0.0217,-0.0311,-0.0303,-0.0343,-0.0377,-0.0422,-0.0382,-0.0367,-0.041,-0.0406,-0.04,-0.0324,-0.0313,-0.0303,-0.0271,-0.0258,-0.0424,-0.0424,-0.0425,-0.0425,0,0.0051,0.0029,0.0016,-0.0027,-0.0067,-0.01,-0.015,-0.0174,-0.0197,-0.0222,-0.0212,-0.0273,-0.0276,-0.0281,-0.0324,-0.0253,-0.0276,-0.032,-0.0348,-0.0281,-0.0253,-0.024,-0.0416,-0.0418,-0.042,-0.0421,0,0,0.0092,0.003,0.0027,0.0022,-0.0044,-0.0074,-0.0072,-0.0091,-0.0047,-0.0118,-0.0059,-0.01,-0.0111,-0.0119,-0.015,-0.0135,-0.0066,-0.0194,-0.0195,-0.0149,-0.0005,-0.0006,0.0007,-0.0105,-0.0102,-0.01,-0.0008,0,0.0108,0.0086,0.005,0.0043,0.0028,-0.0009,0.0006,-0.0006,-0.001,0.0023,0.001,0.0035,-0.0051,-0.003,-0.0028,-0.0059,-0.0031,-0.0086,-0.0085,-0.0084,-0.0085,0.0022,0.0023,0.0107,0.0004,0.0006,0.0008,0,0.012,0.0106,0.0105,0.0102,0.0098,0.0098,0.0143,0.0143,0.0183,0.019,0.0218,0.0198,0.0231,0.0142,0.0144,0.0109,0.007,0.0037,0.0039,0.0014,-0.0061,0.002,0.0133,-0.0006,0.0027,0.0025,0.0024,0,0.0182,0.015,0.0164,0.0154,0.0137,0.0166,0.0172,0.0207,0.0261,0.0317,0.0377,0.0376,0.0414,0.0353,0.0276,0.0216,0.0278,0.0186,0.0159,0.0159,0.015,0.0145,0.014,0.0209,0.0209,0.0209,0.0209,0,0.0216,0.0226,0.0201,0.0208,0.0267,0.0233,0.0327,0.0341,0.0417,0.0523,0.048,0.0575,0.0465,0.0475,0.0363,0.0324,0.0353,0.0215,0.0197,0.0186,0.0183,0.005,-0.0044,0.0212,0.0212,0.0211,0.021,0,0.0278,0.0253,0.0274,0.0278,0.0295,0.0341,0.0422,0.0504,0.055,0.0695,0.0728,0.076,0.0777,0.0674,0.061,0.0472,0.0344,0.0384,0.0387,0.0368,0.0174,0.0086,0.0084,0.0039,0.037,0.037,0.0371,0,0.0309,0.0322,0.0344,0.0382,0.039,0.0458,0.0529,0.0577,0.0675,0.082,0.0911,0.0975,0.106,0.0968,0.0758,0.0617,0.0442,0.0473,0.0352,0.0209,0.0097,0.0025,-0.0018,0.0387,0.0388,0.0388,0.0389,0,0.0385,0.0391,0.0413,0.0484,0.0554,0.0641,0.0739,0.0838,0.0928,0.1069,0.125,0.1335,0.1259,0.1142,0.0916,0.0762,0.0373,0.048,0.0336,0.0135,0.0056,-0.0011,0.0279,0.0394,0.0394,0.0393,0.0393,0.0393,0.046,0.0495,0.0531,0.0601,0.0688,0.0819,0.0912,0.1048,0.1238,0.1461,0.151,0.1694,0.1428,0.1144,0.0929,0.047,0.0456,0.0289,0.0206,0.0157,0.0079,0.0393,0.0471,0.0471,0.0471,0.0471,0.0471,0,0.0567,0.0592,0.0652,0.0746,0.0859,0.0881,0.1054,0.1166,0.1403,0.1663,0.1849,0.1853,0.1543,0.1152,0.054,0.0235,0.0104,0.0052,-0.0068,-0.0092,0.0201,0.0162,0.0173,0.0173,0.0173,0.0174,0.0174,0.0174,0.0628,0.0705,0.0717,0.0886,0.0957,0.1111,0.1211,0.1389,0.1586,0.1898,0.2068,0.2167,0.181,0.0763,0.0066,-0.009,-0.0295,-0.0329,-0.042,-0.0268,-0.0254,-0.024,-0.0299,-0.0384,-0.0385,-0.0682,-0.0685,-0.0688]}],[{"header":{"parameterUnit":"m.s-1","parameterCategory":2,"la1":30.2991,"la2":30.254,"lo1":-89.0895,"lo2":-89.0444,"dy":0.0017,"dx":0.0017,"nx":28,"ny":28,"refTime":"2024-04-14T21:00:00:Z","depth":"2","parameterNumber":2,"parameterNumberName":"U-component_of_CURRENTS"},"data":[0,0,0,0,0,0,0,0,0,0,0,0,0,0,0,0,0,0,0,0,0,0,0,0,0,0,0,0,0,0,0,0,0,0,0,0,0,0,0,0,0,0,0,0,0,0,0,0,0,0,0,0,0,0,0,0,0,0,0.2344,0.2345,0,0.2319,0.2318,0.2317,0.2325,0.2327,0.2328,0.2329,0.2412,0.2413,0.2414,0,0,0,0,0,0,0,0,0,0,0,0,0,0.2295,0.2296,0.2344,0.2345,0.2345,0.2319,0.2318,0.2317,0.2325,0.2327,0.2328,0.233,0.2412,0.2413,0.2414,0,0,0,0,0,0,0,0,0,0,0,0,0,0.2289,0.2296,0.2344,0.2353,0.2354,0.2319,0.2318,0.2316,0.2325,0.2327,0.2329,0.2331,0.2411,0.2413,0.2414,0.2382,0,0,0.2418,0.2419,0,0,0,0,0,0,0,0,0.229,0.229,0.2351,0.2352,0.2354,0.2335,0.2331,0.2347,0.2324,0.2326,0.2329,0.2332,0.2401,0.2403,0.2379,0.2386,0.2389,0.2418,0.2419,0.242,0.242,0,0,0,0,0,0,0,0.229,0.2291,0.2325,0.2352,0.2353,0.2323,0.2324,0.2332,0.2348,0.2326,0.2329,0.234,0.2401,0.2378,0.2382,0.239,0.2418,0.242,0.2421,0.2421,0.2671,0.2677,0,0,0,0,0,0,0.2315,0.2292,0.2326,0.2325,0.2336,0.2323,0.2324,0.2332,0.2345,0.2351,0.2338,0.234,0.2374,0.238,0.2385,0.258,0.242,0.2421,0.2422,0.2666,0.2673,0.2679,0,0,0,0,0,0,0.2313,0.2318,0.2327,0.2315,0.2315,0.2323,0.2331,0.233,0.2318,0.2354,0.2361,0.233,0.2376,0.2383,0.2471,0.2575,0.2422,0.2423,0.2659,0.2668,0.2676,0.2822,0,0,0,0,0,0,0.2312,0.2317,0.2325,0.2317,0.2318,0.2345,0.233,0.2329,0.2326,0.2328,0.2349,0.2358,0.2378,0.2469,0.2472,0.2574,0.2424,0.2651,0.2663,0.2673,0.281,0.2835,0.2856,0,0,0,0,0,0.231,0.231,0.2325,0.233,0.233,0.2347,0.2344,0.2349,0.2323,0.2338,0.2385,0.2358,0.2542,0.2473,0.2476,0.2581,0.2646,0.266,0.2672,0.28,0.283,0.2856,0,0,0,0,0,0,0.2288,0.2312,0.2328,0.2335,0.2363,0.2353,0.2353,0.2343,0.2375,0.2386,0.2398,0.2414,0.2545,0.2537,0.246,0.2696,0.2602,0.2616,0.2698,0.2726,0.2749,0.2738,0.2425,0,0,0,0,0,0.2291,0.2308,0.233,0.2346,0.2351,0.2346,0.2346,0.236,0.2388,0.2398,0.244,0.2504,0.2593,0.2635,0.2703,0.2789,0.2754,0.2875,0.2898,0.2917,0.2917,0.2952,0.2976,0.2722,0.2722,0.2722,0,0,0.229,0.2307,0.2317,0.2345,0.235,0.2414,0.2349,0.2368,0.2456,0.2406,0.2536,0.2574,0.2636,0.278,0.2838,0.2787,0.2979,0.2933,0.2949,0.2938,0.2968,0.2992,0.3013,0.2731,0.2729,0.2728,0,0,0.2316,0.2309,0.2343,0.238,0.2419,0.2441,0.2451,0.2477,0.2518,0.2631,0.2656,0.2757,0.2858,0.2952,0.3002,0.3181,0.31,0.3209,0.3309,0.3345,0.3364,0.338,0.3378,0.3393,0.3219,0.322,0.322,0,0.2325,0.2371,0.2357,0.242,0.2465,0.2466,0.2537,0.2591,0.2667,0.2707,0.2715,0.2898,0.296,0.3124,0.3225,0.3234,0.3205,0.3189,0.3368,0.3383,0.3397,0.3391,0.3405,0.3228,0.3227,0.3226,0.3226,0,0.2386,0.2445,0.2463,0.2567,0.2615,0.2665,0.2754,0.2819,0.2865,0.2919,0.307,0.3154,0.325,0.3321,0.3337,0.3491,0.3422,0.3385,0.3277,0.343,0.3416,0.3428,0.3241,0.3237,0.3235,0.3233,0,0,0.2372,0.2484,0.2504,0.2562,0.2691,0.2722,0.2888,0.2999,0.3064,0.3189,0.3291,0.3487,0.3469,0.3528,0.3556,0.3615,0.3728,0.355,0.3548,0.3512,0.3764,0.3609,0.3606,0.3694,0.3697,0.37,0.3715,0,0.2436,0.2553,0.2617,0.2765,0.2824,0.2902,0.3042,0.3153,0.324,0.3354,0.3451,0.357,0.3569,0.3612,0.3681,0.3703,0.3764,0.3724,0.3652,0.365,0.3464,0.3618,0.3327,0.3306,0.3726,0.3727,0.3729,0,0.2488,0.256,0.2688,0.2829,0.2859,0.2968,0.3113,0.324,0.3405,0.3468,0.3578,0.363,0.3777,0.3747,0.3839,0.3794,0.3808,0.3817,0.3816,0.3621,0.3518,0.3225,0.3311,0.3748,0.3746,0.3745,0.3743,0,0.2451,0.2611,0.2699,0.2756,0.2926,0.2999,0.3102,0.3261,0.3355,0.3532,0.3602,0.3727,0.3797,0.3841,0.388,0.3854,0.3943,0.39,0.3776,0.3763,0.3477,0.3433,0.3986,0.3986,0.3986,0.3986,0.3986,0,0.2484,0.2556,0.2677,0.2733,0.2845,0.2966,0.3097,0.3213,0.3379,0.3485,0.3637,0.3711,0.3821,0.3883,0.3904,0.3862,0.3955,0.3814,0.3772,0.3524,0.3486,0.3829,0.3811,0.3986,0.3986,0.3986,0.3986,0,0.2436,0.2525,0.2626,0.2782,0.2834,0.2911,0.3103,0.3185,0.334,0.349,0.3556,0.371,0.3761,0.385,0.3914,0.386,0.3865,0.3838,0.3525,0.3446,0.3651,0.3641,0.3681,0.3676,0.3672,0.3668,0.3665,0,0.2425,0.2455,0.2623,0.2696,0.2775,0.29,0.2993,0.3163,0.325,0.3456,0.3515,0.3633,0.3658,0.3687,0.3644,0.3633,0.3778,0.3352,0.3274,0.3673,0.3628,0.3625,0.3621,0.2962,0.2954,0.2947,0.2941,0,0.2407,0.2454,0.2564,0.2666,0.2774,0.2858,0.2994,0.3037,0.3219,0.3298,0.3357,0.3385,0.3436,0.3248,0.3258,0.3223,0.3323,0.3205,0.3723,0.3078,0.2994,0.2951,0.2971,0.288,0.2886,0.289,0.2894,0.2896,0.24,0.2453,0.2573,0.2648,0.2774,0.2792,0.2786,0.2876,0.2915,0.2948,0.3069,0.2997,0.3015,0.2826,0.2747,0.2712,0.2939,0.2815,0.2837,0.2867,0.2774,0.2687,0.2496,0.25,0.2503,0.2506,0.2509,0,0.2375,0.2439,0.2531,0.2633,0.2682,0.2748,0.2771,0.2682,0.2614,0.2642,0.2612,0.2348,0.2228,0.2302,0.2129,0.211,0.2114,0.2044,0.203,0.2092,0.2147,0.2019,0.154,0.1538,0.1535,0.1532,0,0,0.2383,0.2417,0.2426,0.2479,0.2556,0.2503,0.2447,0.2281,0.2223,0.2034,0.1952,0.2068,0.2181,0.1811,0.1768,0.1621,0.1845,0.1559,0.2335,0.2377,0.2429,0.2589,0.2461,0,0,0,0,0]},{"header":{"parameterUnit":"m.s-1","parameterCategory":2,"la1":30.2991,"la2":30.254,"lo1":-89.0895,"lo2":-89.0444,"dy":0.0017,"dx":0.0017,"nx":28,"ny":28,"refTime":"2024-04-14T21:00:00:Z","depth":"2","parameterNumber":3,"parameterNumberName":"V-component_of_CURRENTS"},"data":[0,0,0,0,0,0,0,0,0,0,0,0,0,0,0,0,0,0,0,0,0,0,0,0,0,0,0,0,0,0,0,0,0,0,0,0,0,0,0,0,0,0,0,0,0,0,0,0,0,0,0,0,0,0,0,0,0,0,-0.0101,-0.0102,0,-0.0144,-0.0144,-0.0145,-0.0176,-0.0176,-0.0177,-0.0177,-0.0262,-0.0264,-0.0266,0,0,0,0,0,0,0,0,0,0,0,0,0,-0.003,-0.003,-0.0101,-0.0102,-0.0103,-0.0144,-0.0144,-0.0145,-0.0176,-0.0176,-0.0177,-0.0178,-0.0262,-0.0264,-0.0266,0,0,0,0,0,0,0,0,0,0,0,0,0,-0.0062,-0.0031,-0.0101,-0.0126,-0.0129,-0.0144,-0.0144,-0.0145,-0.0175,-0.0176,-0.0177,-0.0178,-0.0261,-0.0264,-0.0266,-0.0264,0,0,-0.0274,-0.0275,0,0,0,0,0,0,0,0,-0.006,-0.0064,-0.0121,-0.0124,-0.0128,-0.0159,-0.0151,-0.0188,-0.0175,-0.0154,-0.0177,-0.0179,-0.0233,-0.0238,-0.0239,-0.0268,-0.0272,-0.0274,-0.0276,-0.0277,-0.0278,0,0,0,0,0,0,0,-0.0058,-0.0062,-0.0115,-0.0122,-0.0126,-0.013,-0.0135,-0.0157,-0.0186,-0.0156,-0.0159,-0.0169,-0.0235,-0.0236,-0.0241,-0.0273,-0.0274,-0.0276,-0.0278,-0.0279,-0.0304,-0.0303,0,0,0,0,0,0,-0.006,-0.006,-0.0113,-0.0116,-0.0099,-0.0131,-0.0136,-0.0145,-0.0185,-0.0193,-0.0169,-0.0171,-0.0231,-0.0238,-0.0244,-0.0266,-0.0277,-0.0279,-0.0281,-0.0304,-0.0303,-0.0302,0,0,0,0,0,0,-0.0058,-0.0064,-0.0112,-0.0092,-0.0099,-0.0131,-0.014,-0.0145,-0.0146,-0.0195,-0.0203,-0.0165,-0.0232,-0.0241,-0.0273,-0.0269,-0.028,-0.0283,-0.0305,-0.0304,-0.0303,-0.0295,0,0,0,0,0,0,-0.0056,-0.0063,-0.0064,-0.0092,-0.01,-0.0122,-0.014,-0.0146,-0.0153,-0.0156,-0.0194,-0.0203,-0.0233,-0.0269,-0.0276,-0.0272,-0.0285,-0.0307,-0.0305,-0.0303,-0.0297,-0.0294,-0.0291,0,0,0,0,0,-0.0053,-0.0052,-0.0064,-0.007,-0.0103,-0.0122,-0.0126,-0.0149,-0.0152,-0.0152,-0.0184,-0.0202,-0.0262,-0.0271,-0.0279,-0.0276,-0.0307,-0.0305,-0.0303,-0.0298,-0.0294,-0.0291,0,0,0,0,0,0,-0.0022,-0.0056,-0.007,-0.008,-0.0101,-0.0129,-0.013,-0.0141,-0.0162,-0.0165,-0.0204,-0.0216,-0.0241,-0.0252,-0.026,-0.0273,-0.0282,-0.0281,-0.0274,-0.0272,-0.0269,-0.0232,-0.0287,0,0,0,0,0,-0.0016,-0.0024,-0.0058,-0.0065,-0.0074,-0.0097,-0.0105,-0.0121,-0.0147,-0.0155,-0.0197,-0.0221,-0.0236,-0.025,-0.0275,-0.0286,-0.0272,-0.0281,-0.0279,-0.0277,-0.0249,-0.022,-0.0212,-0.0296,-0.0296,-0.0296,0,0,-0.0009,-0.0026,-0.0033,-0.0059,-0.0074,-0.0073,-0.0103,-0.0114,-0.011,-0.0162,-0.0183,-0.0222,-0.0237,-0.0258,-0.0267,-0.0269,-0.0251,-0.0274,-0.0273,-0.0246,-0.0217,-0.0208,-0.0201,-0.0294,-0.0295,-0.0295,0,0,0.0009,-0.001,-0.0008,-0.0019,-0.0042,-0.0054,-0.0054,-0.0092,-0.0104,-0.0134,-0.0162,-0.0194,-0.0237,-0.0244,-0.0247,-0.0236,-0.0242,-0.0246,-0.0204,-0.0177,-0.0169,-0.0163,-0.0159,-0.0152,-0.024,-0.024,-0.024,0,0.0019,0.0024,-0.001,-0.0005,0.0003,-0.004,-0.0019,-0.0039,-0.0088,-0.0089,-0.014,-0.0182,-0.022,-0.0199,-0.0209,-0.023,-0.0221,-0.0223,-0.0173,-0.0166,-0.0159,-0.0157,-0.0149,-0.024,-0.024,-0.024,-0.024,0,0.0043,0.0051,0.0055,0.0053,0.0054,0.0063,0.0036,0.0022,-0.0011,-0.0038,-0.0061,-0.0126,-0.0143,-0.0166,-0.0193,-0.0157,-0.017,-0.018,-0.0183,-0.015,-0.015,-0.0142,-0.0239,-0.0239,-0.0239,-0.0239,0,0,0.0063,0.0072,0.0076,0.0108,0.0095,0.0109,0.0113,0.0117,0.0138,0.0052,0.0073,0.0005,-0.0046,-0.0049,-0.0093,-0.0083,-0.0064,-0.0113,-0.0112,-0.0112,-0.0015,-0.0058,-0.0054,-0.0067,-0.0065,-0.0063,-0.0044,0,0.0101,0.0146,0.0135,0.0195,0.0228,0.021,0.0225,0.0218,0.0187,0.0178,0.0117,0.0102,0.0007,-0.0007,-0.0018,-0.0029,-0.0037,-0.0068,-0.0042,-0.0041,-0.0085,-0.0043,-0.0035,-0.0019,-0.0036,-0.0035,-0.0034,0,0.0133,0.0172,0.0235,0.0301,0.0313,0.0334,0.0385,0.0386,0.0362,0.033,0.0289,0.0233,0.0223,0.0132,0.0118,0.0103,0.0043,0.0014,0.0015,-0.0012,-0.0067,-0.0048,-0.0004,-0.002,-0.0022,-0.0023,-0.0023,0,0.0191,0.025,0.0317,0.0335,0.0382,0.0416,0.0436,0.0431,0.0458,0.0428,0.0452,0.0389,0.0398,0.0321,0.0217,0.0184,0.0203,0.0154,0.0052,0.0047,0.007,0.0064,0.0138,0.0138,0.0138,0.0138,0.0138,0,0.0242,0.0301,0.0353,0.0391,0.0488,0.0486,0.0565,0.0558,0.0572,0.0639,0.0534,0.0584,0.0453,0.0426,0.0291,0.0206,0.0257,0.0081,0.0064,0.0068,0.0062,0.0077,0.007,0.0138,0.0138,0.0138,0.0138,0,0.0284,0.0309,0.0403,0.048,0.0511,0.0575,0.0657,0.0714,0.071,0.0802,0.0808,0.0776,0.0742,0.0586,0.0489,0.034,0.0234,0.0172,0.0167,0.0147,0.0036,0.0029,0.009,0.0089,0.0088,0.0087,0.0087,0,0.0311,0.036,0.0472,0.0542,0.0579,0.0672,0.0743,0.0765,0.0842,0.0933,0.1006,0.0991,0.0981,0.0795,0.0538,0.0306,0.0256,0.0153,0.0082,0.0062,0.0038,0.0032,0.0027,0.0106,0.0105,0.0105,0.0105,0,0.0385,0.0414,0.0498,0.0616,0.0714,0.084,0.0949,0.1035,0.1097,0.1186,0.13,0.1296,0.1105,0.0873,0.0532,0.0364,0.0187,0.0137,0.0168,0.0103,0.0075,0.0051,0.0046,0.0102,0.0102,0.0102,0.0103,0.0103,0.0453,0.0529,0.0615,0.0735,0.0831,0.0988,0.1101,0.1231,0.137,0.1482,0.149,0.1458,0.1199,0.0744,0.0477,0.0175,0.018,0.0057,0.0059,0.0062,0.0047,0.0018,0.003,0.003,0.003,0.003,0.003,0,0.0558,0.0634,0.0738,0.0879,0.097,0.1013,0.1225,0.1324,0.1497,0.157,0.1615,0.1346,0.1088,0.0777,0.0328,0.0073,0.0052,-0.0009,0.002,0.0025,0.0029,0.0013,-0.0014,-0.0014,-0.0015,-0.0016,0,0,0.0626,0.0758,0.0809,0.0975,0.1047,0.1199,0.1327,0.1453,0.1531,0.1582,0.1539,0.1472,0.1133,0.0803,0.0472,0.0224,0.0179,0.0172,0.0231,0.0309,0.0316,0.0088,0.0071,0,0,0,0,0]}],[{"header":{"parameterUnit":"m.s-1","parameterCategory":2,"la1":30.2991,"la2":30.254,"lo1":-89.0895,"lo2":-89.0444,"dy":0.0017,"dx":0.0017,"nx":28,"ny":28,"refTime":"2024-04-14T21:00:00:Z","depth":"4","parameterNumber":2,"parameterNumberName":"U-component_of_CURRENTS"},"data":[0,0,0,0,0,0,0,0,0,0,0,0,0,0,0,0,0,0,0,0,0,0,0,0,0,0,0,0,0,0,0,0,0,0,0,0,0,0,0,0,0,0,0,0,0,0,0,0,0,0,0,0,0,0,0,0,0,0,0.1135,0.1134,0,0.1003,0.1001,0.0999,0.1028,0.1031,0.1035,0.1038,0.1103,0.1102,0.1101,0,0,0,0,0,0,0,0,0,0,0,0,0,0.1222,0.122,0.1135,0.1134,0.1133,0.1004,0.1001,0.0998,0.1028,0.1031,0.1035,0.1039,0.1103,0.1102,0.11,0,0,0,0,0,0,0,0,0,0,0,0,0,0.1139,0.122,0.1135,0.1138,0.1138,0.1004,0.1001,0.0998,0.1027,0.1032,0.1036,0.1041,0.1104,0.1102,0.11,0.0992,0,0,0.1095,0.1094,0,0,0,0,0,0,0,0,0.1144,0.1135,0.1139,0.1138,0.1137,0.1044,0.1056,0.1008,0.1026,0.106,0.1038,0.1043,0.1103,0.1101,0.1052,0.0996,0.0998,0.1094,0.1093,0.1092,0.1092,0,0,0,0,0,0,0,0.115,0.114,0.1075,0.1137,0.1136,0.1081,0.1075,0.1044,0.1054,0.1058,0.1062,0.1058,0.1104,0.1053,0.1055,0.0999,0.1094,0.1093,0.1092,0.1091,0.1033,0.1032,0,0,0,0,0,0,0.1186,0.1146,0.1079,0.1072,0.1161,0.1077,0.107,0.1063,0.105,0.1053,0.1054,0.106,0.1054,0.1057,0.1057,0.1131,0.1092,0.1091,0.109,0.1033,0.1033,0.1032,0,0,0,0,0,0,0.1188,0.1181,0.1085,0.1113,0.1098,0.1073,0.1062,0.1058,0.1064,0.1046,0.1053,0.1074,0.1058,0.106,0.1084,0.1128,0.109,0.1088,0.1034,0.1033,0.1032,0.1151,0,0,0,0,0,0,0.1191,0.1182,0.1191,0.1115,0.1098,0.1039,0.1058,0.1052,0.1055,0.1063,0.1064,0.1072,0.1062,0.1087,0.1083,0.1124,0.1087,0.1034,0.1033,0.1033,0.1147,0.1154,0.116,0,0,0,0,0,0.1194,0.118,0.1191,0.1184,0.1109,0.1039,0.1024,0.1016,0.1052,0.1042,0.1065,0.1075,0.1079,0.1085,0.108,0.1122,0.1035,0.1034,0.1033,0.1145,0.1153,0.116,0,0,0,0,0,0,0.123,0.1179,0.1191,0.1168,0.113,0.1049,0.1028,0.1035,0.1031,0.1056,0.1064,0.107,0.112,0.1078,0.1085,0.1096,0.1058,0.1056,0.1145,0.1153,0.1159,0.1215,0.1085,0,0,0,0,0,0.1239,0.1214,0.1168,0.1153,0.1133,0.109,0.1067,0.1062,0.1045,0.1048,0.1051,0.1058,0.1089,0.1095,0.1092,0.1077,0.11,0.1097,0.1103,0.1109,0.1146,0.1247,0.127,0.1029,0.1029,0.1029,0,0,0.125,0.122,0.1209,0.1158,0.112,0.1074,0.1086,0.1052,0.1057,0.1055,0.1065,0.109,0.1094,0.111,0.1123,0.1093,0.1173,0.1108,0.1114,0.1148,0.1249,0.1274,0.1296,0.1028,0.1029,0.1029,0,0,0.1221,0.1229,0.1184,0.1156,0.1112,0.1079,0.1089,0.1031,0.1058,0.1055,0.1092,0.1156,0.1121,0.1167,0.1185,0.1212,0.1221,0.1187,0.1254,0.1352,0.1376,0.1396,0.1404,0.1425,0.1172,0.1172,0.1172,0,0.1244,0.1183,0.1163,0.1115,0.1113,0.1095,0.1069,0.106,0.1031,0.1083,0.1081,0.1142,0.1165,0.1251,0.128,0.124,0.126,0.1238,0.1371,0.1392,0.1411,0.1415,0.1436,0.1178,0.1177,0.1176,0.1176,0,0.1171,0.1138,0.1108,0.1054,0.1054,0.1017,0.1027,0.1038,0.1077,0.1098,0.1202,0.1224,0.1286,0.129,0.1309,0.1444,0.1399,0.1392,0.1373,0.1445,0.144,0.146,0.1186,0.1184,0.1182,0.1181,0,0,0.1178,0.1075,0.1072,0.1055,0.1032,0.1019,0.1055,0.1093,0.1159,0.1171,0.1278,0.1359,0.1415,0.144,0.1465,0.1544,0.1702,0.1536,0.1538,0.158,0.1866,0.1706,0.1712,0.1733,0.1738,0.1742,0.179,0,0.1129,0.1035,0.1021,0.0982,0.0944,0.0991,0.1041,0.1106,0.117,0.1253,0.1356,0.1451,0.1456,0.152,0.1613,0.1711,0.177,0.1686,0.1758,0.1759,0.1643,0.1737,0.1759,0.1806,0.181,0.1814,0.1816,0,0.1073,0.1015,0.0967,0.0972,0.0975,0.0978,0.1104,0.1146,0.1286,0.1364,0.1482,0.1549,0.1714,0.1691,0.1886,0.1836,0.1876,0.1909,0.1911,0.175,0.1641,0.1726,0.1853,0.185,0.1848,0.1845,0.1843,0,0.1078,0.1001,0.0976,0.0968,0.0963,0.1015,0.1055,0.1191,0.1284,0.1451,0.1543,0.1699,0.1825,0.1916,0.2008,0.1979,0.2178,0.2133,0.1995,0.1979,0.2059,0.2036,0.2261,0.2261,0.2261,0.2261,0.2261,0,0.1026,0.1002,0.0973,0.0941,0.0981,0.103,0.1129,0.1201,0.1362,0.1488,0.1615,0.1716,0.191,0.2024,0.2057,0.2095,0.2223,0.2042,0.2015,0.2089,0.2071,0.2069,0.2047,0.2262,0.2262,0.2262,0.2261,0,0.1004,0.0973,0.093,0.0932,0.0959,0.1003,0.1132,0.1212,0.1377,0.1542,0.1615,0.1814,0.1962,0.2061,0.2222,0.2164,0.2197,0.2158,0.22,0.2168,0.1903,0.1885,0.2018,0.2014,0.201,0.2007,0.2004,0,0.0959,0.0927,0.0925,0.0934,0.0924,0.1001,0.1072,0.1213,0.1299,0.1564,0.1631,0.184,0.195,0.2021,0.213,0.2154,0.2123,0.2105,0.2044,0.1935,0.1896,0.1883,0.1871,0.1998,0.1997,0.1996,0.1995,0,0.0863,0.0885,0.0859,0.0884,0.0923,0.0978,0.1071,0.1127,0.1328,0.1487,0.1625,0.171,0.1858,0.1942,0.199,0.1991,0.2112,0.2065,0.2071,0.2014,0.1912,0.1873,0.1866,0.1982,0.1984,0.1985,0.1986,0,0.0824,0.0796,0.0794,0.0827,0.0872,0.092,0.0983,0.1081,0.1187,0.1456,0.1488,0.168,0.1848,0.1854,0.1884,0.1901,0.1863,0.179,0.1811,0.1827,0.1744,0.1585,0.1566,0,0,0,0,0,0.0769,0.0736,0.0742,0.0739,0.0794,0.0842,0.0971,0.1051,0.1226,0.1287,0.139,0.1501,0.1599,0.1665,0.1644,0.1782,0.1859,0.1746,0.1782,0.1909,0.1924,0.1846,0,0,0,0,0,0,0.0729,0.0708,0.0703,0.0677,0.0688,0.0743,0.0829,0.0963,0.0989,0.118,0.1228,0.1381,0.1477,0.1594,0.1605,0.1629,0.1614,0.1851,0.1846,0.19,0.1914,0.1926,0.1851,0,0,0,0,0]},{"header":{"parameterUnit":"m.s-1","parameterCategory":2,"la1":30.2991,"la2":30.254,"lo1":-89.0895,"lo2":-89.0444,"dy":0.0017,"dx":0.0017,"nx":28,"ny":28,"refTime":"2024-04-14T21:00:00:Z","depth":"4","parameterNumber":3,"parameterNumberName":"V-component_of_CURRENTS"},"data":[0,0,0,0,0,0,0,0,0,0,0,0,0,0,0,0,0,0,0,0,0,0,0,0,0,0,0,0,0,0,0,0,0,0,0,0,0,0,0,0,0,0,0,0,0,0,0,0,0,0,0,0,0,0,0,0,0,0,0.0104,0.0105,0,0.0171,0.0173,0.0174,0.0179,0.0178,0.0177,0.0175,0.0207,0.0209,0.0211,0,0,0,0,0,0,0,0,0,0,0,0,0,0.0072,0.0072,0.0104,0.0105,0.0105,0.0171,0.0173,0.0174,0.0179,0.0178,0.0176,0.0175,0.0207,0.0209,0.0211,0,0,0,0,0,0,0,0,0,0,0,0,0,0.0111,0.0072,0.0104,0.0112,0.0113,0.0171,0.0173,0.0174,0.0179,0.0178,0.0176,0.0174,0.0206,0.0209,0.0212,0.0264,0,0,0.0221,0.0222,0,0,0,0,0,0,0,0,0.0109,0.0113,0.0111,0.0112,0.0113,0.0161,0.0173,0.0201,0.018,0.0159,0.0175,0.0173,0.0187,0.0191,0.0215,0.0266,0.0267,0.0221,0.0223,0.0224,0.0225,0,0,0,0,0,0,0,0.0106,0.0111,0.0136,0.0111,0.0113,0.0143,0.0147,0.0179,0.0185,0.0161,0.016,0.0161,0.0188,0.0212,0.0215,0.0268,0.0221,0.0223,0.0225,0.0226,0.0308,0.0308,0,0,0,0,0,0,0.0086,0.0108,0.0133,0.0137,0.0101,0.0145,0.0149,0.0151,0.0185,0.0188,0.0162,0.0161,0.0208,0.0212,0.0216,0.0261,0.0224,0.0227,0.0228,0.0307,0.0308,0.0308,0,0,0,0,0,0,0.0085,0.0088,0.0131,0.012,0.0127,0.0146,0.0149,0.0153,0.0172,0.0186,0.0188,0.0175,0.0207,0.0212,0.0247,0.0263,0.0228,0.0231,0.0307,0.0308,0.0308,0.0363,0,0,0,0,0,0,0.0084,0.0087,0.0091,0.0119,0.0127,0.017,0.0151,0.0156,0.0173,0.0171,0.0198,0.0199,0.0206,0.0243,0.025,0.0266,0.0233,0.0306,0.0307,0.0308,0.0361,0.0366,0.037,0,0,0,0,0,0.0083,0.0095,0.0091,0.0094,0.0128,0.0171,0.018,0.019,0.0175,0.0198,0.0208,0.0198,0.0251,0.0247,0.0255,0.0272,0.0306,0.0307,0.0308,0.0359,0.0365,0.0369,0,0,0,0,0,0,0.0085,0.0097,0.0093,0.0108,0.0137,0.017,0.0192,0.0193,0.0224,0.0223,0.0223,0.0227,0.0254,0.0258,0.0252,0.0293,0.027,0.0273,0.0306,0.0311,0.0316,0.0322,0.0235,0,0,0,0,0,0.0085,0.0096,0.0116,0.0131,0.0145,0.0169,0.0187,0.0199,0.0223,0.0235,0.0251,0.0261,0.0269,0.0285,0.0298,0.0342,0.0304,0.035,0.0354,0.0358,0.0367,0.0307,0.0306,0.0312,0.0312,0.0312,0,0,0.0087,0.0097,0.0101,0.0132,0.0156,0.02,0.0178,0.0216,0.0251,0.0235,0.029,0.0281,0.028,0.0317,0.0329,0.0324,0.0337,0.0359,0.0363,0.037,0.0308,0.0307,0.0306,0.0312,0.0312,0.0312,0,0,0.0116,0.0111,0.014,0.017,0.0208,0.0226,0.0234,0.0276,0.0291,0.0347,0.0321,0.0324,0.0369,0.0361,0.0361,0.04,0.0355,0.0398,0.0442,0.0384,0.0383,0.0381,0.0335,0.0329,0.041,0.041,0.041,0,0.012,0.0159,0.0158,0.0206,0.0237,0.0237,0.0292,0.0315,0.0363,0.0373,0.0371,0.0387,0.0389,0.0395,0.0412,0.0412,0.0371,0.0425,0.0389,0.0387,0.0385,0.0337,0.033,0.0412,0.0412,0.0412,0.0412,0,0.0181,0.0218,0.0243,0.0296,0.0329,0.0378,0.0404,0.0433,0.0445,0.0458,0.047,0.0467,0.0471,0.0465,0.0463,0.0445,0.0419,0.0393,0.0376,0.0387,0.0337,0.0328,0.0416,0.0415,0.0415,0.0414,0,0,0.0178,0.0267,0.0278,0.0326,0.0384,0.0421,0.0469,0.051,0.0528,0.0551,0.0564,0.0573,0.0546,0.0543,0.0516,0.0477,0.0434,0.0443,0.0438,0.0398,0.0307,0.0293,0.0282,0.0394,0.0393,0.0392,0.0279,0,0.0231,0.0334,0.0363,0.0463,0.0521,0.0537,0.058,0.0609,0.062,0.0632,0.0594,0.0602,0.0581,0.0579,0.0536,0.0459,0.0413,0.0467,0.0301,0.0297,0.0283,0.0272,0.0388,0.0273,0.0271,0.0269,0.0268,0,0.0286,0.0352,0.0459,0.0551,0.0576,0.0631,0.0682,0.0725,0.072,0.0725,0.0704,0.0666,0.0628,0.0595,0.0472,0.0505,0.0419,0.0349,0.0342,0.0306,0.0267,0.0257,0.0251,0.0253,0.0254,0.0255,0.0256,0,0.0295,0.0416,0.0502,0.054,0.0639,0.0684,0.073,0.0753,0.0787,0.0776,0.0782,0.0714,0.069,0.0571,0.0452,0.0456,0.0289,0.027,0.0169,0.0167,0.0189,0.0191,0.016,0.0161,0.0161,0.0161,0.0162,0,0.0339,0.0411,0.052,0.0573,0.067,0.0724,0.0809,0.0828,0.0853,0.0883,0.0833,0.0813,0.0681,0.0573,0.045,0.0291,0.0285,0.0174,0.0134,0.0215,0.0222,0.0182,0.0186,0.0157,0.0158,0.0159,0.0159,0,0.0346,0.0412,0.0518,0.0638,0.0684,0.0752,0.0875,0.0922,0.0942,0.0971,0.097,0.0886,0.0753,0.0602,0.0402,0.0302,0.0139,0.0075,0.0182,0.0149,0.0055,0.0064,-0.0043,-0.0044,-0.0046,-0.0047,-0.0048,0,0.0363,0.0422,0.0562,0.0626,0.0693,0.0812,0.0889,0.0959,0.1,0.1006,0.1,0.0895,0.0821,0.053,0.0369,0.0124,0.0086,0.0006,0.0029,0.0062,0.0033,0.0043,0.0053,-0.005,-0.005,-0.005,-0.0051,0,0.0399,0.0442,0.0529,0.0655,0.0757,0.0875,0.0982,0.1011,0.1074,0.1093,0.1017,0.0882,0.0725,0.0514,0.033,0.015,0.0064,-0.0008,-0.0007,0.0015,0.0052,0.0027,0.0038,-0.0055,-0.0054,-0.0054,-0.0054,0,0.0418,0.0473,0.0575,0.0686,0.0801,0.0897,0.0965,0.1018,0.1062,0.1058,0.1022,0.0868,0.0785,0.0524,0.0344,0.0182,0.014,0.0086,0.0082,0.0085,0.0159,0.0228,0.0138,0,0,0,0,0,0.0443,0.0505,0.0604,0.0718,0.0821,0.0894,0.1006,0.1058,0.1105,0.1055,0.1045,0.0895,0.0644,0.0524,0.0356,0.0315,0.011,0.0112,0.0045,-0.0079,-0.0074,-0.0009,0,0,0,0,0,0,0.0458,0.0551,0.0601,0.072,0.0793,0.0917,0.0989,0.1028,0.0996,0.1008,0.0867,0.0836,0.0582,0.0731,0.0343,0.0296,0.0227,0.0005,0.0001,-0.0082,-0.0077,-0.0073,-0.0005,0,0,0,0,0]}]]